Regional Weather Roundup
Issued by NWS

Home | Current Version | Previous Version | Text Only | Print | Product List | Glossary On
Versions: 1 2 3 4 5 6 7 8 9 10 11 12 13 14 15 16 17 18 19 20 21 22 23 24 25 26 27 28 29 30 31 32 33 34 35 36 37 38 39 40 41 42 43 44 45 46 47 48 49 50
000
ASUS43 KOAX 201810
RWRNE

WEATHER ROUNDUP FOR NEBRASKA
NATIONAL WEATHER SERVICE OMAHA NE
100 PM CDT SUN AUG 20 2017

NOTES: SATELLITE DATA IS BEING USED TO AUGMENT CLOUD COVER ABOVE
       12000 FEET.
       "FAIR" INDICATES FEW OR NO CLOUDS BELOW 12,000 FEET WITH NO
       SIGNIFICANT WEATHER AND/OR OBSTRUCTIONS TO VISIBILITY.


NEZ001>004-019>022-054>056-201900-
NEBRASKA PANHANDLE

CITY           SKY/WX    TMP DP  RH WIND       PRES   REMARKS
SCOTTSBLUFF    SUNNY     82  54  37 SE17      30.08F
6HR MIN TEMP:  56; 6HR MAX TEMP:  82;

ALLIANCE       SUNNY     80  55  42 E18G24    30.07F
6HR MIN TEMP:  53; 6HR MAX TEMP:  80;

CHADRON        SUNNY     77  52  41 VRB5      30.07F
6HR MIN TEMP:  50; 6HR MAX TEMP:  77;

GORDON         FAIR      81  51  35 E14G23    30.08F
6HR MIN TEMP:  62; 6HR MAX TEMP:  81;

KIMBALL        SUNNY     76  56  50 NE13      30.12F
SIDNEY         SUNNY     80  62  54 NE14      30.08S
6HR MIN TEMP:  54; 6HR MAX TEMP:  81;

$$

NEZ057>060-069>072-079>082-201900-
SOUTHWEST NEBRASKA

CITY           SKY/WX    TMP DP  RH WIND       PRES   REMARKS
NORTH PLATTE   SUNNY     85  68  56 E12G20    29.95F
6HR MIN TEMP:  58; 6HR MAX TEMP:  85;

IMPERIAL       SUNNY     84  63  49 NE10      29.97F
6HR MIN TEMP:  60; 6HR MAX TEMP:  84;

LEXINGTON      SUNNY     81  70  69 E7        29.94F
MCCOOK         SUNNY     88  61  40 VRB3      29.93S
6HR MIN TEMP:  61; 6HR MAX TEMP:  88;

OGALLALA       SUNNY     85  63  48 E8        29.99R
$$

NEZ005>010-023>029-035>040-094-201900-
NORTH CENTRAL NEBRASKA

CITY           SKY/WX    TMP DP  RH WIND       PRES   REMARKS
VALENTINE      SUNNY     82  56  40 NE12G21   30.04R
6HR MIN TEMP:  67; 6HR MAX TEMP:  83;

AINSWORTH      SUNNY     81  59  48 NE14G23   29.99S
BROKEN BOW     SUNNY     79  66  64 E12       29.96F
6HR MIN TEMP:  62; 6HR MAX TEMP:  80;

O`NEILL        SUNNY     82  65  57 SE10      29.97S
ORD            SUNNY     79  66  64 E9        29.94F
6HR MIN TEMP:  60; 6HR MAX TEMP:  79;

THEDFORD       SUNNY     83  63  50 NE17      29.99F
$$

NEZ041-046>049-061>064-073>077-083>087-201900-
SOUTH CENTRAL NEBRASKA

CITY           SKY/WX    TMP DP  RH WIND       PRES   REMARKS
GRAND ISLAND   MOSUNNY   81  72  74 SE12      29.94F
6HR MIN TEMP:  65; 6HR MAX TEMP:  82;

AURORA         PTSUNNY   82  73  75 SE9       29.95S
HASTINGS       SUNNY     84  70  62 S8        29.94F
6HR MIN TEMP:  64; 6HR MAX TEMP:  84;

HEBRON         SUNNY     87  72  61 SE7       29.93F HX  93
HOLDREGE       SUNNY     84  67  56 S7        29.93S
KEARNEY        SUNNY     82  70  66 SE9       29.94S
YORK           SUNNY     81  72  74 SE7       29.96S
$$

NEZ011>018-030>034-042>045-201900-
NORTHEAST NEBRASKA

CITY           SKY/WX    TMP DP  RH WIND       PRES   REMARKS
NORFOLK        MOSUNNY   82  66  58 E9        29.95S
6HR MIN TEMP:  63; 6HR MAX TEMP:  82;

ALBION         MOSUNNY   80  69  69 SE10G16   29.96F
BLAIR          RAIN      79  66  65 S6        29.98S
COLUMBUS       SUNNY     79  70  74 E12       29.97F
FREMONT        SUNNY     79  64  60 SE8       29.98F
TEKAMAH        PTSUNNY   80  67  64 S5        29.97R
6HR MIN TEMP:  65; 6HR MAX TEMP:  80;

WAYNE          SUNNY     81  65  59 CALM      29.96F
$$

NEZ050>053-065>068-078-088>093-201900-
SOUTHEAST NEBRASKA

CITY           SKY/WX    TMP DP  RH WIND       PRES   REMARKS
LINCOLN        CLOUDY    79  70  74 E17       29.97S
6HR MIN TEMP:  66; 6HR MAX TEMP:  79; 6HR PCP: TRACE;

OMAHA EPPLEY   CLOUDY    78  66  66 CALM      29.97S
6HR MIN TEMP:  70; 6HR MAX TEMP:  79;

BEATRICE       SUNNY     87  72  60 SE15      29.95F HX  93
FALLS CITY     MOSUNNY   84  69  60 SE13      29.97S
6HR MIN TEMP:  67; 6HR MAX TEMP:  84;

NEBRASKA CITY  TSTM      70  68  92 E8        30.01S
PLATTSMOUTH    CLOUDY    69  64  83 SE10      29.98F
$$

NEZ044-045-051>053-067-201900-
OMAHA AREA

CITY           SKY/WX    TMP DP  RH WIND       PRES   REMARKS
OMAHA EPPLEY   CLOUDY    78  66  66 CALM      29.97S
6HR MIN TEMP:  70; 6HR MAX TEMP:  79;

BLAIR          RAIN      79  66  65 S6        29.98S
FREMONT        SUNNY     79  64  60 SE8       29.98F
MILLARD        CLOUDY    77  66  69 SE9       29.98F
OFFUTT AFB     CLOUDY    72  65  80 S3        29.97F
PLATTSMOUTH    CLOUDY    69  64  83 SE10      29.98F
WAHOO          FAIR      79  67  66 SE14G22   29.97F
$$



USA.gov is the U.S. government's official web portal to all federal, state and local government web resources and services.